Lid_Strength_Index
1 3 5 9 12 14 15 13 10 10 11 8 7 8 9 8 9 12 4 4 4 3 2 2 0 1 1 0 -0 -1 -1 -1 -2 -1 -1 -1 -1 -1 -1 -1 -1 -1 -1 -1 -1 -1 -1 -1 -1
2 3 8 12 15 17 16 13 12 10 8 8 7 8 8 10 6 5 5 3 4 3 3 2 1 1 1 1 0 0 -0 -1 -1 -1 -1 -1 -1 -1 -1 -1 -1 -1 -1 -1 -1 -1 -1 -1 -1
3 4 10 14 17 18 16 12 10 9 7 8 8 7 8 8 5 4 3 3 4 4 3 2 2 2 2 2 1 1 1 0 -0 -1 -1 -2 -2 -1 -1 -1 -1 -1 -1 -1 -1 -1 -1 -1 -1
7 9 12 15 16 14 14 11 9 9 7 7 8 9 6 5 4 3 2 3 6 5 4 3 2 2 2 2 2 2 2 1 1 1 -0 -1 -2 -2 -1 -1 -1 -1 -1 -1 -1 -1 -1 -1 -1
9 12 15 16 16 14 13 10 8 9 9 8 8 11 9 5 4 3 3 4 6 6 5 4 2 3 3 3 3 3 2 2 2 2 1 0 -1 -1 -1 -1 -1 -1 -1 -1 -1 -1 -1 -1 -1
11 13 16 17 16 13 12 11 10 10 9 9 10 11 8 5 4 4 4 5 6 6 5 4 2 3 3 3 4 3 3 3 3 2 2 1 0 -1 -1 -1 -1 -1 -1 -1 -1 -1 -1 -1 -1
12 14 17 17 16 14 11 10 10 11 11 10 9 11 8 6 5 5 5 5 6 6 6 6 5 4 3 3 4 4 4 4 3 3 3 3 1 -1 -1 -1 -1 -1 -1 -1 -1 -1 -1 -1 -1
12 14 16 16 16 15 12 11 10 11 11 9 8 11 10 6 5 5 5 6 6 6 6 7 6 6 7 7 3 4 4 4 4 4 4 3 3 2 1 -0 -0 -1 -1 -1 -1 -1 -1 -1 -1
12 16 17 16 15 13 11 12 10 10 10 10 9 10 8 5 6 6 6 6 6 6 6 7 7 7 7 7 6 5 5 4 4 5 5 5 6 5 2 1 -0 -1 -1 -1 -1 -1 -1 -0 -0
14 17 16 14 14 14 13 12 12 12 12 12 11 9 8 7 7 7 7 7 7 7 6 7 7 7 7 6 7 8 7 8 8 8 7 7 7 5 3 3 1 -1 -1 -1 -1 -1 -0 1 1
14 16 14 13 12 12 13 13 12 13 13 12 12 10 8 9 9 8 8 7 7 7 6 7 7 7 8 8 8 8 9 9 9 8 8 7 7 6 5 4 2 1 0 -0 0 -0 1 1 1
14 13 13 12 11 12 13 12 13 13 12 11 11 11 8 9 9 9 9 8 8 8 7 7 7 8 8 8 8 9 9 9 9 8 7 7 8 7 6 4 3 1 -0 -0 -0 0 1 1 1
13 13 13 12 12 12 12 13 14 13 12 11 11 10 9 9 9 9 8 8 8 8 8 7 8 8 8 8 9 9 9 9 9 8 7 7 8 7 6 5 2 2 -0 0 0 0 1 1 1
12 12 13 13 13 12 14 14 14 13 13 13 12 11 11 10 10 10 9 8 8 7 8 7 7 8 8 9 9 10 9 9 9 8 8 7 7 7 6 4 2 1 -0 -0 0 0 0 0 1
12 15 14 14 13 14 14 15 15 13 12 13 13 12 11 11 10 10 9 8 8 8 7 7 8 8 8 9 9 9 9 9 9 8 7 7 6 6 6 3 1 -0 -0 -0 -0 0 0 1 0
15 15 17 15 14 14 15 16 14 13 14 13 13 14 12 11 11 10 9 8 8 8 8 8 7 8 9 9 9 9 9 9 8 7 7 7 6 6 6 2 1 -0 -0 -0 0 0 1 1 1
16 19 17 15 13 14 16 16 14 14 14 14 14 14 13 13 12 11 10 9 9 9 9 10 9 9 9 9 9 10 9 8 8 7 6 6 6 5 3 1 0 -0 0 0 1 1 1 1 1
19 18 17 18 16 15 17 16 13 13 13 14 14 15 14 13 12 11 10 10 10 10 10 10 9 10 9 10 10 9 9 9 8 7 5 5 5 3 2 1 0 0 1 1 1 1 1 1 1
16 18 18 17 15 16 17 17 14 14 15 15 15 15 14 14 13 12 11 11 11 11 11 11 11 10 11 11 11 11 10 9 8 6 6 5 3 3 1 1 1 1 1 1 1 2 2 2 2
16 17 18 16 16 16 16 16 14 15 15 15 15 15 15 14 13 12 12 12 12 12 12 12 11 11 11 11 11 10 10 9 7 6 5 4 4 3 2 1 1 1 1 1 1 1 2 3 3
17 18 18 18 16 16 17 17 16 16 15 15 15 15 15 14 14 13 13 13 13 13 13 12 12 11 11 10 10 10 10 9 7 7 6 5 3 2 1 1 1 1 1 2 1 1 2 4 3
18 16 16 16 18 19 17 20 17 17 16 15 15 15 15 14 14 13 13 13 13 13 13 12 11 11 11 10 10 11 11 9 7 6 7 5 4 3 1 1 2 2 2 2 1 1 2 3 5
17 15 16 17 18 18 19 20 17 18 17 16 15 15 15 14 14 13 13 12 13 13 14 13 12 12 11 10 10 11 11 8 7 6 6 5 4 3 2 2 2 3 2 2 2 1 2 3 4
15 15 16 16 18 22 19 19 18 18 17 17 16 15 14 14 14 13 13 12 13 14 14 14 13 12 11 10 11 11 11 9 7 8 7 5 4 4 3 3 3 3 2 2 2 1 2 3 3
16 18 24 22 23 21 19 21 17 16 15 15 15 15 14 14 14 14 13 13 14 14 14 13 13 13 11 11 11 10 11 9 8 8 8 6 7 6 4 3 4 3 3 2 3 2 2 3 3
18 18 21 24 22 20 20 20 16 15 15 15 15 15 15 14 14 13 13 13 13 14 14 13 14 12 11 11 11 11 11 10 8 8 8 8 7 5 5 4 4 4 3 4 4 2 2 2 3
18 20 17 21 25 22 19 17 14 16 16 17 16 16 15 14 14 13 13 13 13 14 14 14 14 12 11 12 12 11 11 11 9 8 7 8 7 5 5 6 5 5 5 5 4 3 3 3 3
18 17 20 21 24 24 20 18 17 17 16 16 16 16 15 14 14 14 13 14 14 14 14 15 13 12 11 12 12 10 11 11 10 8 8 7 6 6 6 6 5 6 6 5 4 3 2 3 3
19 20 19 18 19 21 22 18 13 14 15 16 16 16 15 15 14 14 14 14 14 15 15 14 13 12 11 11 11 10 12 11 10 9 8 7 7 6 6 6 6 7 6 5 4 3 3 3 3
19 18 18 20 22 21 20 18 13 12 14 15 16 15 15 14 14 14 14 14 15 15 16 14 13 12 12 11 10 11 12 11 10 10 9 8 8 7 7 7 7 7 5 4 4 3 3 3 4